Location: Hopville
(44.8032°N, 123.1329°W)
Time: 16:58:18
(UTC+00:00)

NOSS 3-2 (A) - Pass Details

Date: 24 January 2021
Orbit: 783 x 1425 km, 63.4° (Epoch: 25 February)

Event Time Altitude Azimuth Distance (km) Brightness Sun altitude
Rises 14:19:33 0° 221° (SW) 3,319 6.0 -14.2°
Reaches altitude 10° 14:21:52 10° 223° (SW) 2,434 5.3 -13.8°
Maximum altitude 14:27:27 77° 309° (NW) 932 3.3 -12.8°
Drops below altitude 10° 14:33:57 10° 36° (NE) 2,804 6.2 -11.7°
Sets 14:36:46 0° 38° (NE) 3,861 6.9 -11.2°
